GEFSMW_prec_meanprecacc_336.txt.gz
Total_Precipitation_Accumulation
2.02 2.46 2.59 2.69 3.09 3.41 3.60 3.50 3.69 4.08 4.37 4.76 4.79 5.04 5.52 5.85 5.95 5.99 5.96 5.86 5.79 5.83 5.70 5.53 5.67 5.50 5.24 5.03 5.00 4.97 4.83 4.47 4.43 4.44 3.94 3.22 2.77 2.55 2.36 2.39 2.47 2.30 2.28
1.86 2.32 2.53 2.91 3.26 3.39 3.63 3.73 3.86 4.36 4.84 5.40 5.94 6.35 6.81 6.85 6.97 6.87 6.72 6.36 6.19 6.12 5.92 5.97 5.79 5.61 5.50 5.22 5.01 4.96 4.85 4.48 4.53 4.54 4.50 3.70 3.12 2.46 1.92 2.05 2.11 2.08 2.16
1.92 2.21 2.52 2.92 3.27 3.45 3.68 3.82 4.14 4.75 5.58 6.17 6.68 7.23 7.59 7.33 7.11 6.77 6.61 6.49 6.43 6.36 6.25 6.26 5.98 5.77 5.53 5.18 4.89 4.77 4.69 4.56 4.56 4.42 4.53 3.95 3.24 2.68 2.15 1.87 1.78 1.88 2.07
1.90 2.18 2.48 2.80 3.12 3.48 3.61 3.81 4.45 5.12 5.75 6.40 7.04 7.58 7.83 7.83 7.63 7.05 6.55 6.18 5.95 5.71 5.64 5.70 5.58 5.40 5.09 4.85 4.52 4.41 4.37 4.53 4.35 4.29 4.07 3.76 3.41 3.19 2.72 2.24 1.96 1.92 1.94
1.89 2.09 2.35 2.60 2.78 3.16 3.55 3.85 4.52 5.26 5.90 6.67 7.40 7.79 7.96 7.93 7.55 6.78 6.01 5.50 5.19 4.92 4.73 4.78 4.70 4.54 4.35 4.19 4.14 4.19 4.10 4.04 3.87 3.76 3.80 3.85 3.75 3.34 2.97 2.59 2.28 2.15 2.02
1.79 1.85 2.12 2.29 2.56 2.91 3.35 3.85 4.22 4.88 5.69 6.29 6.80 6.95 7.08 7.02 6.59 6.15 5.66 5.31 4.83 4.37 4.02 3.92 3.86 3.67 3.50 3.52 3.56 3.67 3.63 3.67 3.67 3.59 3.46 3.46 3.46 3.23 3.13 2.79 2.46 2.39 2.17
1.72 1.95 2.22 2.19 2.47 2.80 3.23 3.72 4.14 4.58 5.17 5.74 6.17 6.36 6.51 6.43 5.93 5.48 5.04 4.63 4.12 3.73 3.44 3.26 3.21 3.10 3.04 3.05 3.22 3.34 3.28 3.24 3.30 3.26 3.17 3.12 3.05 3.02 3.03 3.11 2.82 2.47 2.14
1.78 1.86 1.99 2.10 2.42 2.69 2.98 3.40 3.75 4.15 4.40 4.68 5.14 5.39 5.56 5.41 5.05 4.57 4.07 3.74 3.42 3.08 2.92 2.82 2.76 2.67 2.59 2.55 2.77 2.89 2.95 2.96 3.02 2.97 3.09 3.04 2.92 2.93 2.89 2.96 3.07 2.88 2.51
1.71 1.83 1.96 2.10 2.32 2.67 3.14 3.36 3.37 3.57 3.81 4.09 4.29 4.37 4.46 4.34 4.10 3.79 3.46 3.14 2.84 2.55 2.42 2.38 2.40 2.37 2.33 2.38 2.58 2.63 2.58 2.64 2.66 2.73 2.86 2.83 2.79 2.85 2.81 2.90 3.09 3.22 2.99
1.68 1.79 1.92 2.14 2.22 2.26 2.65 3.02 3.09 3.17 3.24 3.39 3.48 3.41 3.53 3.44 3.38 3.19 2.93 2.67 2.49 2.25 2.18 2.14 2.15 2.18 2.14 2.16 2.29 2.39 2.44 2.43 2.39 2.49 2.68 2.70 2.66 2.83 2.92 3.00 3.05 3.11 3.12
1.88 1.86 1.85 1.91 2.08 2.15 2.29 2.55 2.81 2.86 2.89 3.06 3.08 2.98 3.08 3.06 3.07 2.93 2.71 2.58 2.53 2.40 2.22 2.12 2.17 2.18 2.11 2.08 2.10 2.03 2.12 2.22 2.26 2.30 2.41 2.51 2.61 2.76 2.81 2.90 2.92 2.99 3.05
1.76 1.73 1.67 1.66 1.76 1.98 2.23 2.40 2.52 2.52 2.60 2.74 2.87 2.93 2.97 2.89 2.79 2.60 2.48 2.38 2.26 2.11 2.07 2.06 2.11 2.10 2.02 2.01 1.94 1.81 1.88 1.99 2.06 2.12 2.21 2.27 2.36 2.47 2.42 2.53 2.56 2.62 2.74
1.87 1.75 1.67 1.68 1.71 1.82 1.96 2.16 2.39 2.46 2.46 2.48 2.51 2.65 2.67 2.55 2.43 2.36 2.33 2.25 2.11 2.04 2.06 2.08 2.08 2.09 2.05 2.03 1.97 1.93 1.88 1.79 1.80 1.89 1.94 1.99 2.09 2.07 2.01 2.05 2.05 2.16 2.29
2.04 1.83 1.78 1.76 1.73 1.80 1.84 1.90 2.06 2.24 2.36 2.43 2.57 2.61 2.53 2.41 2.32 2.16 2.00 1.91 1.84 1.89 1.98 1.95 1.91 1.89 1.83 1.74 1.78 1.84 1.82 1.72 1.68 1.68 1.69 1.67 1.62 1.62 1.68 1.71 1.78 1.94 2.25
1.91 1.82 1.83 1.89 1.86 1.78 1.78 1.80 1.98 2.05 2.25 2.38 2.37 2.30 2.23 2.19 2.18 2.11 1.96 1.81 1.69 1.62 1.74 1.73 1.72 1.68 1.57 1.46 1.50 1.58 1.58 1.63 1.60 1.57 1.54 1.46 1.43 1.48 1.46 1.38 1.54 1.82 2.13
1.81 1.79 1.77 1.86 1.77 1.69 1.64 1.64 1.82 1.88 1.98 2.10 2.11 2.03 2.01 2.11 2.09 2.01 1.87 1.77 1.68 1.61 1.63 1.62 1.56 1.46 1.25 1.28 1.31 1.30 1.36 1.47 1.53 1.52 1.43 1.34 1.33 1.32 1.28 1.26 1.36 1.53 1.72
1.95 2.01 2.06 2.06 1.90 1.74 1.67 1.75 1.85 1.90 1.92 1.95 1.91 1.93 1.92 1.91 1.90 1.75 1.66 1.68 1.73 1.62 1.54 1.46 1.38 1.27 1.20 1.19 1.15 1.19 1.26 1.37 1.44 1.48 1.50 1.31 1.14 1.25 1.25 1.28 1.31 1.32 1.40
2.30 2.32 2.32 2.12 1.94 1.83 1.78 1.83 1.83 1.87 1.97 1.91 1.79 1.75 1.76 1.71 1.69 1.69 1.67 1.66 1.66 1.60 1.52 1.41 1.32 1.26 1.13 1.11 1.08 1.10 1.16 1.32 1.37 1.37 1.39 1.43 1.38 1.31 1.33 1.31 1.30 1.26 1.29
2.31 2.23 2.17 2.05 1.88 1.78 1.75 1.74 1.77 1.73 1.74 1.66 1.61 1.54 1.53 1.59 1.62 1.59 1.68 1.67 1.59 1.54 1.44 1.36 1.35 1.32 1.17 1.09 1.04 1.10 1.19 1.30 1.28 1.20 1.20 1.19 1.19 1.23 1.32 1.39 1.45 1.42 1.36
1.86 1.92 1.96 1.91 1.75 1.63 1.59 1.64 1.68 1.65 1.59 1.56 1.55 1.47 1.46 1.49 1.53 1.55 1.60 1.55 1.53 1.50 1.38 1.31 1.34 1.34 1.27 1.10 0.98 1.05 1.10 1.13 1.14 1.17 1.14 1.08 1.01 1.01 1.05 1.12 1.35 1.49 1.40
1.59 1.61 1.79 1.85 1.68 1.48 1.45 1.55 1.56 1.55 1.42 1.41 1.50 1.52 1.50 1.49 1.49 1.51 1.54 1.51 1.48 1.52 1.51 1.46 1.45 1.43 1.32 1.17 1.02 1.00 0.99 1.00 1.04 1.09 1.09 1.05 0.95 0.83 0.85 0.98 1.17 1.29 1.31
1.50 1.49 1.63 1.61 1.47 1.37 1.46 1.54 1.52 1.42 1.36 1.41 1.56 1.58 1.58 1.45 1.42 1.58 1.61 1.54 1.51 1.47 1.54 1.55 1.52 1.47 1.40 1.21 1.07 0.99 0.94 0.96 0.99 1.06 1.07 1.02 0.94 0.83 0.85 0.93 1.05 1.14 1.29
1.46 1.43 1.52 1.51 1.39 1.36 1.44 1.51 1.46 1.38 1.43 1.52 1.58 1.63 1.57 1.55 1.54 1.60 1.61 1.54 1.51 1.43 1.40 1.41 1.41 1.36 1.26 1.15 1.03 0.97 0.92 0.92 0.92 0.94 0.97 0.96 0.95 0.96 1.01 1.05 1.08 1.18 1.38
1.38 1.42 1.49 1.45 1.36 1.27 1.29 1.35 1.26 1.26 1.43 1.60 1.57 1.58 1.60 1.59 1.57 1.53 1.46 1.41 1.38 1.32 1.28 1.26 1.26 1.16 1.10 1.00 0.88 0.85 0.84 0.87 0.91 0.92 1.00 1.08 1.13 1.14 1.13 1.17 1.26 1.32 1.42
1.30 1.33 1.42 1.42 1.28 1.20 1.18 1.19 1.23 1.31 1.46 1.50 1.48 1.47 1.50 1.51 1.50 1.38 1.28 1.28 1.21 1.09 1.03 1.01 1.00 0.97 0.94 0.91 0.89 0.84 0.83 0.81 0.83 0.91 1.05 1.22 1.30 1.31 1.26 1.23 1.26 1.30 1.33
1.29 1.33 1.30 1.26 1.17 1.06 1.04 1.08 1.15 1.21 1.34 1.33 1.30 1.30 1.37 1.40 1.34 1.31 1.20 1.10 1.01 1.02 0.97 0.91 0.92 0.91 0.93 0.86 0.75 0.75 0.77 0.81 0.93 0.99 1.19 1.33 1.37 1.38 1.25 1.20 1.17 1.16 1.17

GEFSMW_prec_meanprecacc_342.txt.gz
Total_Precipitation_Accumulation
2.03 2.48 2.61 2.70 3.10 3.42 3.62 3.53 3.72 4.11 4.39 4.78 4.81 5.04 5.53 5.87 5.97 6.01 5.98 5.88 5.82 5.86 5.72 5.55 5.70 5.53 5.27 5.06 5.03 4.99 4.86 4.49 4.46 4.48 3.98 3.26 2.79 2.57 2.40 2.43 2.52 2.36 2.33
1.88 2.34 2.55 2.92 3.27 3.40 3.65 3.75 3.89 4.38 4.85 5.41 5.96 6.36 6.82 6.87 6.98 6.89 6.75 6.39 6.22 6.15 5.95 6.00 5.83 5.64 5.53 5.25 5.03 4.99 4.89 4.50 4.56 4.58 4.55 3.75 3.16 2.49 1.95 2.09 2.15 2.13 2.20
1.94 2.23 2.55 2.95 3.28 3.46 3.69 3.84 4.16 4.77 5.59 6.18 6.69 7.25 7.61 7.36 7.15 6.83 6.66 6.53 6.47 6.38 6.28 6.30 6.02 5.80 5.56 5.21 4.93 4.81 4.73 4.59 4.59 4.46 4.57 3.99 3.28 2.72 2.19 1.89 1.81 1.93 2.11
1.91 2.20 2.51 2.83 3.15 3.50 3.62 3.83 4.47 5.14 5.77 6.43 7.06 7.61 7.86 7.86 7.66 7.10 6.60 6.22 5.98 5.74 5.67 5.74 5.62 5.44 5.13 4.89 4.55 4.45 4.41 4.57 4.37 4.32 4.09 3.79 3.44 3.22 2.75 2.26 2.00 1.98 1.98
1.90 2.10 2.36 2.62 2.80 3.18 3.57 3.87 4.55 5.29 5.93 6.70 7.43 7.82 7.99 7.95 7.58 6.81 6.05 5.53 5.22 4.94 4.76 4.81 4.75 4.59 4.39 4.23 4.16 4.22 4.14 4.07 3.90 3.79 3.83 3.88 3.78 3.37 3.00 2.62 2.32 2.20 2.06
1.80 1.87 2.13 2.31 2.58 2.94 3.39 3.89 4.25 4.92 5.72 6.33 6.83 6.98 7.11 7.05 6.62 6.18 5.69 5.33 4.85 4.38 4.03 3.94 3.88 3.70 3.54 3.55 3.58 3.69 3.65 3.68 3.69 3.62 3.49 3.50 3.50 3.26 3.15 2.82 2.50 2.44 2.21
1.73 1.96 2.23 2.20 2.48 2.82 3.27 3.77 4.18 4.62 5.21 5.78 6.21 6.40 6.55 6.47 5.97 5.51 5.06 4.64 4.13 3.74 3.45 3.28 3.23 3.12 3.06 3.06 3.23 3.36 3.30 3.26 3.32 3.29 3.21 3.16 3.10 3.07 3.06 3.14 2.86 2.51 2.19
1.80 1.89 2.01 2.11 2.43 2.71 3.01 3.42 3.78 4.18 4.44 4.73 5.19 5.44 5.60 5.45 5.08 4.60 4.09 3.76 3.43 3.10 2.94 2.84 2.78 2.69 2.60 2.57 2.78 2.91 2.97 2.98 3.04 2.99 3.12 3.08 2.96 2.97 2.93 2.99 3.11 2.92 2.54
1.72 1.85 1.98 2.12 2.33 2.68 3.15 3.38 3.40 3.61 3.86 4.17 4.38 4.44 4.50 4.39 4.14 3.83 3.49 3.16 2.86 2.56 2.43 2.39 2.41 2.38 2.35 2.39 2.59 2.65 2.59 2.66 2.68 2.74 2.88 2.85 2.82 2.88 2.84 2.93 3.13 3.26 3.03
1.69 1.81 1.94 2.16 2.23 2.27 2.67 3.05 3.13 3.23 3.32 3.46 3.55 3.49 3.60 3.51 3.43 3.25 2.98 2.71 2.51 2.28 2.20 2.15 2.16 2.19 2.16 2.17 2.31 2.40 2.45 2.45 2.40 2.51 2.71 2.73 2.69 2.86 2.94 3.03 3.08 3.14 3.16
1.89 1.88 1.86 1.92 2.09 2.17 2.31 2.58 2.85 2.92 2.95 3.11 3.13 3.04 3.15 3.13 3.13 2.98 2.76 2.63 2.57 2.43 2.25 2.13 2.19 2.19 2.12 2.09 2.12 2.04 2.13 2.23 2.27 2.31 2.42 2.53 2.63 2.79 2.84 2.92 2.94 3.01 3.07
1.78 1.74 1.68 1.67 1.76 1.98 2.25 2.43 2.56 2.55 2.63 2.78 2.92 2.98 3.03 2.96 2.85 2.64 2.52 2.43 2.31 2.16 2.12 2.09 2.13 2.12 2.04 2.03 1.96 1.83 1.90 2.01 2.08 2.13 2.22 2.28 2.37 2.49 2.45 2.56 2.59 2.64 2.76
1.88 1.76 1.68 1.69 1.72 1.83 1.98 2.18 2.42 2.49 2.49 2.51 2.54 2.68 2.70 2.59 2.50 2.44 2.39 2.30 2.16 2.09 2.10 2.12 2.11 2.12 2.08 2.05 1.99 1.95 1.90 1.83 1.83 1.91 1.95 2.01 2.10 2.09 2.04 2.08 2.09 2.19 2.31
2.04 1.84 1.79 1.76 1.74 1.81 1.86 1.92 2.08 2.26 2.39 2.46 2.60 2.64 2.56 2.44 2.36 2.22 2.06 1.97 1.89 1.93 2.02 1.98 1.93 1.91 1.84 1.76 1.80 1.86 1.85 1.75 1.71 1.70 1.71 1.68 1.64 1.64 1.70 1.73 1.81 1.97 2.28
1.92 1.83 1.84 1.91 1.87 1.80 1.80 1.84 2.01 2.08 2.28 2.42 2.41 2.34 2.27 2.23 2.21 2.15 2.00 1.86 1.75 1.66 1.78 1.76 1.75 1.70 1.59 1.48 1.53 1.60 1.61 1.66 1.63 1.60 1.56 1.47 1.45 1.49 1.47 1.39 1.57 1.85 2.17
1.83 1.80 1.78 1.88 1.80 1.72 1.67 1.67 1.86 1.91 2.01 2.13 2.14 2.06 2.04 2.14 2.12 2.06 1.91 1.81 1.72 1.66 1.67 1.66 1.59 1.49 1.28 1.30 1.33 1.32 1.39 1.50 1.58 1.56 1.46 1.36 1.35 1.33 1.29 1.26 1.37 1.55 1.76
1.98 2.02 2.08 2.09 1.94 1.78 1.72 1.78 1.89 1.94 1.97 1.99 1.93 1.94 1.95 1.95 1.95 1.80 1.71 1.73 1.77 1.66 1.57 1.50 1.41 1.31 1.24 1.23 1.18 1.22 1.30 1.40 1.48 1.52 1.53 1.33 1.16 1.28 1.27 1.31 1.34 1.35 1.43
2.32 2.35 2.34 2.15 1.97 1.86 1.81 1.86 1.87 1.91 2.01 1.95 1.83 1.77 1.79 1.73 1.72 1.73 1.72 1.70 1.70 1.63 1.55 1.44 1.35 1.29 1.16 1.15 1.11 1.14 1.18 1.36 1.40 1.40 1.42 1.47 1.42 1.34 1.36 1.34 1.33 1.29 1.32
2.35 2.27 2.21 2.08 1.91 1.80 1.76 1.76 1.79 1.75 1.76 1.68 1.64 1.57 1.56 1.61 1.64 1.63 1.72 1.72 1.63 1.57 1.47 1.38 1.38 1.35 1.20 1.13 1.06 1.12 1.20 1.32 1.31 1.24 1.24 1.22 1.22 1.25 1.34 1.41 1.48 1.46 1.40
1.91 1.98 2.02 1.96 1.79 1.66 1.62 1.67 1.69 1.67 1.61 1.57 1.57 1.49 1.48 1.52 1.57 1.58 1.64 1.61 1.58 1.55 1.41 1.34 1.37 1.36 1.30 1.13 1.01 1.08 1.12 1.15 1.18 1.20 1.17 1.11 1.03 1.04 1.06 1.14 1.39 1.54 1.46
1.67 1.71 1.90 1.93 1.73 1.53 1.50 1.58 1.59 1.57 1.43 1.42 1.52 1.54 1.52 1.51 1.52 1.54 1.58 1.57 1.54 1.57 1.55 1.50 1.48 1.45 1.36 1.21 1.06 1.04 1.02 1.03 1.08 1.12 1.11 1.07 0.96 0.84 0.86 1.00 1.20 1.34 1.36
1.59 1.61 1.75 1.68 1.52 1.42 1.50 1.58 1.55 1.43 1.38 1.43 1.59 1.61 1.60 1.48 1.44 1.62 1.66 1.59 1.56 1.52 1.58 1.59 1.55 1.50 1.43 1.24 1.09 1.02 0.96 0.97 1.01 1.08 1.09 1.04 0.96 0.84 0.86 0.94 1.08 1.17 1.31
1.53 1.54 1.61 1.55 1.43 1.39 1.47 1.55 1.49 1.40 1.45 1.54 1.61 1.66 1.60 1.58 1.55 1.62 1.63 1.57 1.55 1.46 1.43 1.44 1.44 1.39 1.29 1.17 1.06 1.00 0.95 0.95 0.94 0.96 1.00 0.98 0.98 0.98 1.03 1.07 1.11 1.19 1.39
1.44 1.49 1.55 1.49 1.38 1.29 1.32 1.38 1.29 1.28 1.45 1.62 1.59 1.61 1.62 1.62 1.59 1.56 1.47 1.43 1.40 1.34 1.30 1.28 1.28 1.18 1.12 1.02 0.90 0.87 0.87 0.90 0.94 0.95 1.03 1.11 1.16 1.16 1.15 1.20 1.28 1.34 1.44
1.35 1.38 1.46 1.47 1.33 1.23 1.20 1.20 1.25 1.33 1.48 1.51 1.50 1.50 1.53 1.55 1.54 1.41 1.30 1.29 1.23 1.12 1.05 1.03 1.02 0.99 0.96 0.93 0.91 0.85 0.85 0.84 0.86 0.94 1.08 1.25 1.33 1.33 1.28 1.25 1.28 1.32 1.35
1.32 1.37 1.34 1.30 1.20 1.09 1.06 1.10 1.18 1.24 1.37 1.35 1.32 1.33 1.41 1.44 1.38 1.34 1.21 1.12 1.02 1.04 0.98 0.93 0.94 0.93 0.95 0.88 0.78 0.77 0.79 0.82 0.95 1.01 1.21 1.35 1.39 1.40 1.27 1.23 1.19 1.18 1.19

GEFSMW_prec_meanprecacc_348.txt.gz
Total_Precipitation_Accumulation
2.07 2.51 2.65 2.73 3.12 3.44 3.64 3.55 3.75 4.15 4.43 4.82 4.83 5.06 5.55 5.90 6.00 6.04 6.00 5.90 5.84 5.88 5.75 5.59 5.74 5.57 5.31 5.10 5.08 5.06 4.93 4.55 4.51 4.53 4.04 3.30 2.81 2.60 2.43 2.48 2.56 2.41 2.37
1.92 2.38 2.59 2.96 3.30 3.43 3.67 3.78 3.93 4.42 4.88 5.45 5.99 6.39 6.84 6.89 7.01 6.92 6.78 6.40 6.23 6.16 5.98 6.03 5.86 5.67 5.58 5.29 5.08 5.06 4.95 4.55 4.61 4.65 4.64 3.82 3.21 2.53 1.97 2.12 2.19 2.18 2.25
1.95 2.27 2.60 2.99 3.31 3.49 3.72 3.87 4.21 4.80 5.62 6.21 6.72 7.27 7.64 7.39 7.18 6.87 6.70 6.55 6.48 6.40 6.30 6.31 6.05 5.84 5.60 5.26 4.97 4.85 4.78 4.64 4.64 4.51 4.64 4.07 3.36 2.77 2.22 1.92 1.86 1.99 2.16
1.92 2.21 2.54 2.87 3.18 3.53 3.66 3.87 4.51 5.17 5.80 6.45 7.09 7.64 7.89 7.88 7.69 7.13 6.64 6.24 5.99 5.74 5.68 5.75 5.64 5.47 5.16 4.94 4.58 4.49 4.44 4.61 4.41 4.37 4.15 3.85 3.51 3.29 2.80 2.29 2.05 2.04 2.03
1.91 2.11 2.38 2.65 2.82 3.21 3.62 3.93 4.60 5.34 5.99 6.75 7.48 7.87 8.03 8.00 7.62 6.84 6.09 5.56 5.24 4.95 4.76 4.82 4.77 4.61 4.42 4.26 4.19 4.26 4.17 4.11 3.93 3.84 3.88 3.93 3.85 3.43 3.06 2.68 2.39 2.27 2.11
1.80 1.87 2.14 2.32 2.61 2.96 3.42 3.94 4.30 4.97 5.79 6.39 6.89 7.03 7.15 7.11 6.70 6.24 5.73 5.36 4.87 4.40 4.04 3.94 3.90 3.72 3.56 3.57 3.61 3.72 3.68 3.72 3.74 3.66 3.53 3.55 3.57 3.33 3.22 2.88 2.58 2.51 2.26
1.73 1.96 2.23 2.21 2.50 2.85 3.29 3.79 4.22 4.66 5.27 5.85 6.27 6.44 6.59 6.51 6.02 5.56 5.11 4.68 4.16 3.77 3.47 3.30 3.26 3.15 3.08 3.08 3.25 3.39 3.33 3.30 3.36 3.32 3.25 3.20 3.14 3.13 3.11 3.19 2.92 2.58 2.24
1.80 1.89 2.01 2.12 2.44 2.72 3.03 3.45 3.81 4.21 4.48 4.78 5.24 5.49 5.65 5.49 5.12 4.66 4.13 3.80 3.47 3.13 2.97 2.87 2.81 2.72 2.62 2.58 2.81 2.93 2.99 3.02 3.08 3.01 3.16 3.12 3.00 3.02 2.97 3.03 3.16 2.97 2.59
1.72 1.85 1.99 2.13 2.34 2.71 3.18 3.41 3.44 3.63 3.89 4.20 4.41 4.48 4.55 4.44 4.20 3.91 3.56 3.21 2.90 2.61 2.48 2.44 2.44 2.41 2.37 2.41 2.62 2.67 2.61 2.70 2.72 2.77 2.91 2.89 2.85 2.92 2.87 2.96 3.16 3.32 3.09
1.72 1.82 1.95 2.17 2.25 2.30 2.71 3.09 3.15 3.25 3.33 3.48 3.57 3.52 3.66 3.57 3.50 3.33 3.07 2.78 2.57 2.33 2.28 2.22 2.21 2.24 2.19 2.19 2.33 2.43 2.48 2.48 2.45 2.55 2.75 2.77 2.71 2.88 2.97 3.05 3.10 3.17 3.21
1.93 1.90 1.88 1.93 2.11 2.19 2.35 2.61 2.88 2.94 2.96 3.12 3.14 3.06 3.19 3.18 3.18 3.04 2.84 2.71 2.63 2.50 2.33 2.21 2.26 2.25 2.18 2.14 2.17 2.08 2.16 2.26 2.32 2.36 2.46 2.56 2.66 2.83 2.87 2.94 2.96 3.04 3.10
1.80 1.75 1.70 1.68 1.78 2.02 2.28 2.47 2.59 2.58 2.65 2.80 2.94 3.01 3.07 3.00 2.90 2.71 2.58 2.50 2.38 2.24 2.19 2.17 2.21 2.19 2.10 2.09 2.01 1.88 1.94 2.08 2.16 2.20 2.28 2.32 2.42 2.55 2.50 2.60 2.62 2.68 2.80
1.89 1.77 1.69 1.71 1.74 1.85 2.01 2.22 2.45 2.52 2.52 2.54 2.57 2.72 2.74 2.64 2.55 2.49 2.44 2.36 2.23 2.16 2.18 2.19 2.19 2.19 2.15 2.13 2.06 2.01 1.96 1.89 1.88 1.96 2.00 2.06 2.17 2.16 2.10 2.12 2.13 2.24 2.35
2.05 1.86 1.81 1.79 1.78 1.85 1.91 1.98 2.13 2.30 2.42 2.48 2.64 2.70 2.62 2.49 2.40 2.26 2.11 2.03 1.96 2.00 2.10 2.07 2.00 1.98 1.92 1.83 1.87 1.92 1.89 1.80 1.75 1.74 1.74 1.72 1.69 1.71 1.77 1.78 1.86 2.02 2.33
1.95 1.86 1.86 1.94 1.91 1.85 1.89 1.92 2.07 2.13 2.32 2.46 2.45 2.38 2.32 2.29 2.27 2.20 2.05 1.92 1.81 1.73 1.86 1.85 1.81 1.76 1.64 1.52 1.57 1.64 1.64 1.70 1.67 1.63 1.59 1.51 1.50 1.55 1.52 1.43 1.61 1.90 2.22
1.86 1.82 1.79 1.90 1.82 1.74 1.72 1.75 1.93 1.97 2.07 2.18 2.19 2.10 2.09 2.20 2.19 2.13 2.00 1.87 1.79 1.72 1.74 1.73 1.64 1.53 1.31 1.33 1.36 1.35 1.43 1.55 1.63 1.60 1.49 1.41 1.40 1.36 1.31 1.28 1.39 1.58 1.79
2.02 2.04 2.10 2.11 1.96 1.82 1.76 1.83 1.93 1.99 2.02 2.04 1.97 1.99 2.00 2.00 2.01 1.86 1.78 1.80 1.84 1.73 1.64 1.56 1.47 1.36 1.28 1.26 1.20 1.24 1.32 1.44 1.53 1.56 1.57 1.35 1.18 1.30 1.29 1.32 1.35 1.36 1.45
2.38 2.38 2.37 2.18 2.01 1.91 1.87 1.93 1.93 1.96 2.06 1.99 1.86 1.80 1.82 1.78 1.78 1.79 1.78 1.77 1.78 1.72 1.63 1.50 1.40 1.34 1.21 1.19 1.15 1.17 1.21 1.39 1.43 1.44 1.46 1.50 1.45 1.37 1.39 1.37 1.35 1.31 1.34
2.44 2.37 2.30 2.14 1.96 1.86 1.82 1.82 1.86 1.81 1.80 1.71 1.67 1.59 1.58 1.64 1.68 1.68 1.78 1.80 1.72 1.65 1.54 1.45 1.44 1.40 1.25 1.18 1.10 1.16 1.24 1.36 1.34 1.27 1.26 1.25 1.25 1.28 1.36 1.44 1.51 1.47 1.41
2.02 2.10 2.13 2.04 1.86 1.73 1.68 1.73 1.76 1.73 1.66 1.61 1.61 1.52 1.50 1.54 1.60 1.62 1.69 1.67 1.67 1.64 1.50 1.42 1.43 1.42 1.36 1.18 1.03 1.11 1.14 1.18 1.21 1.24 1.20 1.13 1.05 1.05 1.07 1.16 1.42 1.56 1.48
1.76 1.80 2.00 2.05 1.83 1.63 1.59 1.67 1.67 1.64 1.48 1.45 1.55 1.60 1.56 1.54 1.54 1.56 1.61 1.62 1.61 1.64 1.61 1.57 1.54 1.51 1.41 1.24 1.08 1.06 1.03 1.05 1.11 1.15 1.14 1.10 0.98 0.85 0.87 1.00 1.22 1.36 1.39
1.64 1.67 1.83 1.78 1.63 1.53 1.63 1.69 1.64 1.51 1.44 1.49 1.65 1.67 1.65 1.51 1.46 1.65 1.69 1.64 1.62 1.58 1.63 1.65 1.61 1.56 1.48 1.28 1.12 1.04 0.98 0.99 1.03 1.11 1.13 1.08 0.99 0.86 0.88 0.95 1.09 1.19 1.34
1.57 1.60 1.67 1.63 1.51 1.49 1.61 1.69 1.61 1.48 1.51 1.61 1.69 1.74 1.65 1.62 1.60 1.65 1.67 1.62 1.61 1.53 1.48 1.48 1.49 1.44 1.35 1.22 1.09 1.02 0.97 0.97 0.96 0.99 1.03 1.02 1.02 1.00 1.05 1.09 1.12 1.20 1.42
1.49 1.54 1.61 1.55 1.45 1.36 1.39 1.47 1.40 1.37 1.53 1.69 1.67 1.69 1.69 1.68 1.66 1.63 1.54 1.49 1.47 1.42 1.36 1.33 1.34 1.24 1.17 1.07 0.94 0.91 0.89 0.92 0.95 0.97 1.05 1.13 1.18 1.18 1.17 1.21 1.29 1.35 1.46
1.40 1.44 1.53 1.55 1.39 1.27 1.25 1.25 1.30 1.41 1.56 1.58 1.56 1.56 1.59 1.61 1.61 1.48 1.37 1.37 1.31 1.20 1.13 1.10 1.09 1.05 1.02 0.98 0.95 0.88 0.87 0.85 0.87 0.95 1.10 1.28 1.36 1.36 1.31 1.28 1.31 1.34 1.37
1.36 1.43 1.42 1.37 1.27 1.14 1.10 1.14 1.22 1.29 1.43 1.41 1.38 1.39 1.47 1.50 1.45 1.42 1.30 1.20 1.10 1.11 1.05 1.00 1.02 1.01 1.01 0.93 0.82 0.81 0.82 0.85 0.97 1.03 1.22 1.37 1.43 1.44 1.31 1.25 1.22 1.20 1.22

GEFSMW_prec_meanprecacc_354.txt.gz
Total_Precipitation_Accumulation
2.09 2.53 2.68 2.78 3.16 3.46 3.67 3.58 3.77 4.19 4.47 4.85 4.88 5.12 5.59 5.93 6.02 6.06 6.01 5.91 5.85 5.89 5.77 5.60 5.75 5.58 5.33 5.12 5.11 5.09 4.95 4.57 4.53 4.55 4.05 3.32 2.84 2.62 2.45 2.50 2.62 2.50 2.46
1.94 2.42 2.66 3.04 3.34 3.45 3.70 3.83 3.97 4.47 4.95 5.51 6.04 6.42 6.87 6.91 7.03 6.93 6.80 6.42 6.24 6.19 6.00 6.05 5.87 5.68 5.59 5.30 5.10 5.08 4.96 4.57 4.63 4.66 4.65 3.83 3.23 2.55 1.99 2.14 2.22 2.22 2.30
1.97 2.32 2.64 3.01 3.33 3.51 3.75 3.91 4.25 4.86 5.68 6.29 6.79 7.33 7.67 7.42 7.22 6.90 6.72 6.57 6.53 6.47 6.34 6.34 6.06 5.84 5.61 5.26 4.99 4.87 4.79 4.66 4.65 4.52 4.65 4.08 3.36 2.78 2.23 1.93 1.87 2.01 2.19
1.95 2.23 2.55 2.88 3.20 3.55 3.68 3.89 4.55 5.23 5.89 6.54 7.17 7.71 7.94 7.92 7.71 7.15 6.65 6.27 6.02 5.78 5.71 5.76 5.65 5.47 5.17 4.94 4.60 4.50 4.45 4.63 4.43 4.38 4.16 3.86 3.52 3.30 2.81 2.31 2.06 2.07 2.05
1.93 2.13 2.40 2.66 2.84 3.22 3.63 3.95 4.63 5.39 6.06 6.84 7.58 7.94 8.09 8.04 7.66 6.88 6.13 5.60 5.27 4.98 4.78 4.83 4.78 4.62 4.43 4.27 4.20 4.28 4.18 4.12 3.94 3.85 3.88 3.94 3.86 3.44 3.07 2.69 2.42 2.31 2.16
1.82 1.90 2.18 2.37 2.66 3.03 3.48 4.01 4.38 5.04 5.86 6.47 6.98 7.11 7.21 7.15 6.74 6.30 5.79 5.40 4.91 4.45 4.09 3.97 3.92 3.74 3.58 3.59 3.62 3.73 3.70 3.74 3.75 3.68 3.55 3.57 3.58 3.34 3.23 2.89 2.60 2.54 2.32
1.76 2.01 2.29 2.26 2.56 2.94 3.38 3.88 4.31 4.76 5.37 5.94 6.36 6.54 6.65 6.55 6.07 5.62 5.17 4.73 4.20 3.80 3.50 3.33 3.29 3.18 3.11 3.11 3.28 3.41 3.35 3.32 3.37 3.33 3.26 3.22 3.16 3.14 3.13 3.21 2.94 2.60 2.27
1.84 1.96 2.11 2.23 2.56 2.83 3.12 3.52 3.87 4.28 4.55 4.86 5.32 5.55 5.70 5.52 5.16 4.71 4.18 3.85 3.51 3.16 3.00 2.90 2.83 2.76 2.66 2.61 2.84 2.96 3.02 3.04 3.09 3.02 3.17 3.13 3.02 3.04 2.99 3.05 3.18 3.00 2.62
1.79 1.98 2.18 2.34 2.52 2.85 3.28 3.49 3.50 3.71 3.96 4.26 4.47 4.53 4.59 4.48 4.24 3.96 3.62 3.25 2.93 2.64 2.52 2.48 2.47 2.44 2.40 2.44 2.65 2.69 2.64 2.73 2.74 2.78 2.93 2.91 2.87 2.94 2.90 2.99 3.19 3.35 3.13
1.84 1.97 2.10 2.30 2.39 2.48 2.83 3.16 3.24 3.35 3.42 3.54 3.62 3.57 3.70 3.62 3.54 3.37 3.11 2.82 2.60 2.37 2.33 2.28 2.26 2.28 2.23 2.23 2.38 2.46 2.51 2.53 2.50 2.61 2.81 2.83 2.75 2.92 3.01 3.09 3.14 3.20 3.25
2.05 2.03 2.00 2.02 2.20 2.33 2.50 2.79 3.02 3.03 3.04 3.18 3.19 3.11 3.23 3.23 3.23 3.09 2.88 2.76 2.69 2.56 2.38 2.26 2.33 2.32 2.24 2.19 2.23 2.13 2.23 2.34 2.42 2.46 2.56 2.65 2.74 2.89 2.93 3.00 3.02 3.10 3.16
1.88 1.84 1.80 1.80 1.89 2.11 2.39 2.63 2.80 2.71 2.73 2.87 3.01 3.07 3.12 3.06 2.96 2.75 2.62 2.55 2.43 2.29 2.25 2.22 2.26 2.25 2.17 2.16 2.08 1.95 2.03 2.19 2.28 2.33 2.40 2.43 2.52 2.65 2.60 2.70 2.71 2.75 2.87
1.97 1.85 1.77 1.80 1.85 1.92 2.09 2.33 2.59 2.68 2.62 2.59 2.62 2.78 2.81 2.70 2.60 2.53 2.49 2.41 2.28 2.21 2.23 2.25 2.24 2.24 2.21 2.20 2.13 2.09 2.05 1.98 1.98 2.07 2.11 2.14 2.25 2.24 2.17 2.19 2.18 2.28 2.39
2.13 1.94 1.88 1.84 1.83 1.90 1.95 2.05 2.21 2.37 2.49 2.54 2.69 2.75 2.69 2.57 2.47 2.32 2.17 2.08 2.01 2.05 2.15 2.11 2.05 2.03 1.97 1.89 1.94 1.98 1.94 1.84 1.78 1.78 1.77 1.74 1.72 1.73 1.79 1.80 1.87 2.03 2.34
2.02 1.95 1.95 2.00 1.95 1.89 1.93 1.98 2.14 2.19 2.39 2.53 2.51 2.45 2.41 2.38 2.36 2.29 2.13 2.01 1.89 1.79 1.92 1.91 1.86 1.81 1.68 1.56 1.61 1.68 1.68 1.73 1.69 1.65 1.61 1.53 1.53 1.56 1.53 1.43 1.61 1.90 2.22
1.92 1.91 1.88 1.96 1.87 1.79 1.77 1.80 2.00 2.05 2.13 2.25 2.26 2.18 2.17 2.30 2.32 2.26 2.11 2.02 1.92 1.81 1.81 1.81 1.71 1.58 1.35 1.37 1.40 1.39 1.46 1.58 1.66 1.62 1.51 1.43 1.43 1.38 1.32 1.29 1.40 1.59 1.80
2.09 2.13 2.20 2.18 2.01 1.86 1.79 1.86 1.97 2.04 2.09 2.11 2.03 2.05 2.06 2.06 2.10 1.98 1.89 1.90 1.93 1.81 1.70 1.62 1.53 1.41 1.33 1.31 1.25 1.28 1.36 1.47 1.56 1.58 1.59 1.37 1.20 1.33 1.30 1.33 1.36 1.37 1.45
2.48 2.51 2.49 2.26 2.06 1.97 1.92 1.96 1.96 2.00 2.11 2.04 1.91 1.85 1.88 1.84 1.86 1.88 1.87 1.86 1.86 1.78 1.69 1.56 1.47 1.40 1.27 1.25 1.20 1.22 1.25 1.42 1.46 1.47 1.49 1.53 1.47 1.39 1.41 1.38 1.36 1.31 1.35
2.53 2.50 2.44 2.26 2.04 1.92 1.87 1.86 1.90 1.85 1.86 1.78 1.73 1.65 1.63 1.69 1.74 1.75 1.86 1.87 1.79 1.72 1.60 1.51 1.50 1.47 1.32 1.26 1.18 1.25 1.31 1.40 1.38 1.30 1.30 1.28 1.27 1.31 1.38 1.45 1.51 1.48 1.42
2.12 2.21 2.24 2.15 1.96 1.81 1.75 1.79 1.82 1.80 1.74 1.70 1.68 1.58 1.56 1.60 1.64 1.66 1.74 1.72 1.73 1.72 1.57 1.49 1.51 1.50 1.46 1.31 1.15 1.23 1.25 1.25 1.26 1.29 1.24 1.18 1.09 1.09 1.10 1.17 1.42 1.57 1.48
1.84 1.89 2.10 2.14 1.92 1.72 1.68 1.74 1.74 1.71 1.56 1.53 1.61 1.65 1.63 1.61 1.61 1.63 1.66 1.66 1.66 1.71 1.68 1.63 1.62 1.60 1.53 1.37 1.21 1.19 1.18 1.16 1.18 1.21 1.19 1.14 1.01 0.88 0.90 1.03 1.23 1.37 1.40
1.72 1.75 1.90 1.84 1.70 1.61 1.71 1.77 1.72 1.59 1.53 1.58 1.72 1.74 1.75 1.61 1.55 1.72 1.75 1.68 1.67 1.63 1.69 1.71 1.68 1.63 1.55 1.36 1.20 1.13 1.09 1.10 1.13 1.18 1.17 1.12 1.03 0.89 0.90 0.98 1.12 1.22 1.35
1.61 1.67 1.74 1.69 1.59 1.57 1.70 1.80 1.71 1.57 1.62 1.72 1.78 1.82 1.73 1.72 1.69 1.74 1.75 1.68 1.66 1.58 1.54 1.54 1.54 1.50 1.42 1.27 1.14 1.09 1.04 1.05 1.03 1.04 1.06 1.04 1.04 1.03 1.06 1.11 1.14 1.23 1.43
1.51 1.60 1.67 1.61 1.52 1.46 1.47 1.55 1.50 1.46 1.61 1.78 1.77 1.79 1.78 1.76 1.75 1.72 1.62 1.56 1.52 1.46 1.42 1.38 1.38 1.28 1.22 1.12 0.99 0.95 0.95 0.97 1.01 1.02 1.08 1.16 1.21 1.20 1.19 1.22 1.30 1.36 1.47
1.43 1.49 1.58 1.60 1.46 1.34 1.32 1.32 1.38 1.50 1.66 1.68 1.63 1.63 1.66 1.67 1.67 1.55 1.43 1.42 1.36 1.25 1.18 1.15 1.13 1.09 1.06 1.02 1.00 0.94 0.93 0.91 0.93 1.00 1.13 1.31 1.39 1.39 1.33 1.29 1.31 1.35 1.39
1.39 1.48 1.46 1.43 1.33 1.21 1.17 1.21 1.29 1.37 1.51 1.51 1.46 1.45 1.52 1.55 1.49 1.46 1.33 1.23 1.13 1.14 1.08 1.04 1.06 1.05 1.05 0.97 0.86 0.87 0.88 0.92 1.05 1.09 1.26 1.40 1.46 1.47 1.33 1.27 1.23 1.22 1.24